Regional Weather Roundup
Issued by NWS Northern Indiana

Home | Current Version | Previous Version | Text Only | Print | Product List | Glossary Off
Versions: 1 2 3 4 5 6 7 8 9 10 11 12 13 14 15 16 17 18 19 20 21 22 23 24 25 26 27 28 29 30 31 32 33 34 35 36 37 38 39 40 41 42 43 44 45 46 47 48 49 50

000
ASUS43 KIWX 210000
RWRIWX

KIWX WEATHER ROUNDUP
NATIONAL WEATHER SERVICE NORTHERN INDIANA
800 PM EDT MON OCT 20 2014

NOTE: "FAIR" INDICATES FEW OR NO CLOUDS BELOW 12,000 FEET WITH NO
SIGNIFICANT WEATHER AND/OR OBSTRUCTIONS TO VISIBILITY.

* THESE STATIONS ARE NOT UNDER NWS QUALITY CONTROL. THEY ALSO MAY NOT
  REPORT WEATHER SUCH AS PRECIPITATION OR FOG.

INZ001>027-210100-
NORTHERN INDIANA

CITY           SKY/WX    TMP DP  RH WIND       PRES   REMARKS
GARY*          CLOUDY    55  48  76 N12       29.96R
SOUTH BEND     CLOUDY    53  47  79 NW13      29.94R
6HR MIN TEMP:  53; 6HR MAX TEMP:  61;

ELKHART*       CLOUDY    54  46  76 NW8       29.92R
GOSHEN         CLOUDY    54  48  80 NW13      29.90R
6HR MIN TEMP:  54; 6HR MAX TEMP:  63;

ANGOLA*        CLOUDY    55  48  76 NW9       29.87R
FORT WAYNE     MOCLDY    57  48  72 N10       29.89R
6HR MIN TEMP:  54; 6HR MAX TEMP:  62;

PERU/GRISSOM   CLOUDY    58  51  76 N10       29.89R
6HR MIN TEMP:  58; 6HR MAX TEMP:  67;


$$
INZ028>050-210100-
CENTRAL INDIANA

CITY           SKY/WX    TMP DP  RH WIND       PRES   REMARKS
LAFAYETTE      MOCLDY    60  47  61 NW8       29.90R
6HR MIN TEMP:  59; 6HR MAX TEMP:  67;

KOKOMO*        MOCLDY    57  46  67 N9        29.90R
6HR MIN TEMP:  57; 6HR MAX TEMP:  66;

MUNCIE*        MOCLDY    57  50  77 NW6       29.88R
6HR MIN TEMP:  56; 6HR MAX TEMP:  65; 6HR PCP:  0.01;

INDIANAPOLIS   PTCLDY    59  46  62 W8        29.89R
6HR MIN TEMP:  59; 6HR MAX TEMP:  68;


$$
MIZ043>046-050>051-056>058-064>065-071>073-077>080-210100-
SOUTHWEST LOWER MICHIGAN

CITY           SKY/WX    TMP DP  RH WIND       PRES   REMARKS
BATTLE CREEK   CLOUDY    54  47  77 NW10      29.88R
6HR MIN TEMP:  53; 6HR MAX TEMP:  60;

BENTON HARBOR  CLOUDY    52  46  80 VRB7      29.93R
6HR MIN TEMP:  52; 6HR MAX TEMP:  55;

COLDWATER*     CLOUDY    55  50  82 W9        29.88R
6HR MIN TEMP:  53; 6HR MAX TEMP:  58;

HILLSDALE*     CLOUDY    54  52  94 W6        29.86R
6HR MIN TEMP:  52; 6HR MAX TEMP:  55;

HOLLAND        CLOUDY    53  44  71 VRB6      29.93R
6HR MIN TEMP:  53; 6HR MAX TEMP:  60;

GRAND RAPIDS   CLOUDY    52  44  74 NW14      29.90R
6HR MIN TEMP:  52; 6HR MAX TEMP:  64;

KALAMAZOO      CLOUDY    53  46  77 NW10      29.90R
6HR MIN TEMP:  53; 6HR MAX TEMP:  60;

STURGIS*       CLOUDY    54  48  82 NW12      29.89R
THREE RIVERS*  CLOUDY    54  47  79 NW9       29.90R
6HR MIN TEMP:  54; 6HR MAX TEMP:  59;


$$
OHZ001>008-015>018-024>025-210100-
NORTHWEST OHIO

CITY           SKY/WX    TMP DP  RH WIND       PRES   REMARKS
DEFIANCE       MOCLDY    53  50  89 CALM      29.87R
6HR MIN TEMP:  52; 6HR MAX TEMP:  56; 6HR PCP:  0.01;

FINDLAY        CLOUDY    54  51  90 W5        29.85R
6HR MIN TEMP:  53; 6HR MAX TEMP:  55; 6HR PCP:  0.18;

TOLEDO EXPRESS PTCLDY    52  50  93 W5        29.85R
6HR MIN TEMP:  51; 6HR MAX TEMP:  54; 6HR PCP: TRACE;

TOLEDO METCALF CLOUDY    54  50  86 SW6       29.85S
6HR MIN TEMP:  53; 6HR MAX TEMP:  55; 6HR PCP:  0.02;

LIMA           MOCLDY    53  51  93 SW3       29.86R FOG
6HR MIN TEMP:  53; 6HR MAX TEMP:  55; 6HR PCP:  0.07;


$$
AND FOR LAKE MICHIGAN COASTAL AND OPEN LAKE BUOY OBSERVATIONS

STATION/POSITION TEMP    WIND        PRES    VSBY  WAVE
                 AIR SEA DIR/SP/G                  HT/PER
                 (F)     (DEG/KT/KT) (MB)    (MI)  (FT/S)
CALUMET HARBOR    54     350/  8/ 12 1013.1R
MICHIGAN CITY     54     350/ 21/ 24   N/A
SAINT JOSEPH      54                 1014.2R
SOUTH LAKE BUOY   53 55  340/ 17/ 19 1013.2R         3/ 4

$$
&&



USA.gov is the U.S. government's official web portal to all federal, state and local government web resources and services.